| time (UTC) | temp F | wind direction | speed knots | gust knots | rain 1hr in | rain 24hr in | rain mn in | humidity % | barometer mb |
| 20260906150305 | 80 | 64 | 3.5 | 5.2 | 0.00 | 0.00 | 0.00 | 76 | 1015.2 |
| 20260906145805 | 80 | 110 | 2.6 | 5.2 | 0.00 | 0.00 | 0.00 | 78 | 1014.9 |
| 20260906145306 | 80 | 1 | 2.6 | 4.3 | 0.00 | 0.00 | 0.00 | 77 | 1014.9 |
| 20260906144305 | 79 | 138 | 2.6 | 2.6 | 0.00 | 0.00 | 0.00 | 80 | 1014.9 |
| 20260906143805 | 79 | 23 | 2.6 | 5.2 | 0.00 | 0.00 | 0.00 | 78 | 1014.9 |
| 20260906143305 | 79 | 68 | 2.6 | 6.1 | 0.00 | 0.00 | 0.00 | 80 | 1014.9 |
| 20260906142805 | 79 | 138 | 3.5 | 5.2 | 0.00 | 0.00 | 0.00 | 80 | 1014.6 |
| 20260906142306 | 79 | 81 | 2.6 | 4.3 | 0.00 | 0.00 | 0.00 | 80 | 1014.9 |
| 20260906141806 | 79 | 162 | 3.5 | 4.3 | 0.00 | 0.00 | 0.00 | 80 | 1014.9 |
| 20260906141305 | 78 | 90 | 2.6 | 6.1 | 0.00 | 0.00 | 0.00 | 81 | 1014.6 |
| 20260906140305 | 79 | 84 | 1.7 | 4.3 | 0.00 | 0.00 | 0.00 | 80 | 1014.9 |
| 20260906135306 | 78 | 34 | 1.7 | 1.7 | 0.00 | 0.00 | 0.00 | 81 | 1014.6 |
| 20260906134805 | 78 | 29 | 1.7 | 2.6 | 0.00 | 0.00 | 0.00 | 82 | 1014.9 |
| 20260906134305 | 77 | 52 | 1.7 | 4.3 | 0.00 | 0.00 | 0.00 | 83 | 1014.2 |
| 20260906133805 | 77 | 54 | 1.7 | 5.2 | 0.00 | 0.00 | 0.00 | 82 | 1014.8 |
| 20260906133305 | 78 | 54 | 1.7 | 1.7 | 0.00 | 0.00 | 0.00 | 82 | 1014.6 |
| 20260906132805 | 78 | 66 | 1.7 | 1.7 | 0.00 | 0.00 | 0.00 | 81 | 1014.9 |
| 20260906132307 | 78 | 22 | 1.7 | 2.6 | 0.00 | 0.00 | 0.00 | 82 | 1014.9 |
| 20260906131805 | 77 | 57 | 1.7 | 2.6 | 0.00 | 0.00 | 0.00 | 83 | 1014.9 |
| 20260906131305 | 76 | 46 | 0.9 | 1.7 | 0.00 | 0.00 | 0.00 | 84 | 1014.9 |
| 20260906130805 | 75 | 79 | 1.7 | 1.7 | 0.00 | 0.00 | 0.00 | 85 | 1014.9 |
| 20260906130305 | 75 | 81 | 1.7 | 4.3 | 0.00 | 0.00 | 0.00 | 87 | 1014.9 |
| 20260906125805 | 75 | 62 | 2.6 | 5.2 | 0.00 | 0.00 | 0.00 | 87 | 1014.6 |
| 20260906125306 | 75 | 70 | 0.9 | 1.7 | 0.00 | 0.00 | 0.00 | 85 | 1014.9 |
| 20260906124805 | 75 | 348 | 1.7 | 2.6 | 0.00 | 0.00 | 0.00 | 87 | 1014.9 |
| 20260906124305 | 75 | 54 | 1.7 | 1.7 | 0.00 | 0.00 | 0.00 | 88 | 1014.9 |
| 20260906122306 | 74 | 93 | 0.9 | 5.2 | 0.00 | 0.00 | 0.00 | 89 | 1014.5 |
| 20260906121805 | 74 | 93 | 2.6 | 5.2 | 0.00 | 0.00 | 0.00 | 90 | 1014.3 |
| 20260906121304 | 74 | 93 | 2.6 | 4.3 | 0.00 | 0.00 | 0.00 | 90 | 1014.5 |
| 20260906120805 | 73 | 93 | 0.9 | 1.7 | 0.00 | 0.00 | 0.00 | 89 | 1014.2 |
| 20260906120305 | 73 | 93 | 0.9 | 1.7 | 0.00 | 0.00 | 0.00 | 90 | 1014.2 |
| 20260906115805 | 73 | 93 | 1.7 | 1.7 | 0.00 | 0.00 | 0.00 | 90 | 1014.2 |
| 20260906115306 | 73 | 93 | 0.9 | 1.7 | 0.00 | 0.00 | 0.00 | 90 | 1014.2 |
| 20260906114804 | 73 | 93 | 1.7 | 1.7 | 0.00 | 0.00 | 0.00 | 90 | 1014.2 |
| 20260906114305 | 73 | 93 | 1.7 | 1.7 | 0.00 | 0.00 | 0.00 | 90 | 1013.9 |
| 20260906113805 | 73 | 93 | 1.7 | 1.7 | 0.00 | 0.00 | 0.00 | 90 | 1013.9 |
| 20260906113304 | 74 | 93 | 0.9 | 2.6 | 0.00 | 0.00 | 0.00 | 89 | 1013.9 |
| 20260906112805 | 74 | 93 | 1.7 | 2.6 | 0.00 | 0.00 | 0.00 | 90 | 1013.9 |
| 20260906111805 | 74 | 93 | 1.7 | 1.7 | 0.00 | 0.00 | 0.00 | 90 | 1013.9 |
| 20260906111305 | 74 | 93 | 0.9 | 1.7 | 0.00 | 0.00 | 0.00 | 90 | 1013.9 |
| 20260906110305 | 74 | 93 | 0.9 | 1.7 | 0.00 | 0.00 | 0.00 | 90 | 1013.9 |
| 20260906105805 | 74 | 93 | 1.7 | 1.7 | 0.00 | 0.00 | 0.00 | 90 | 1013.9 |
| 20260906105306 | 74 | 93 | 0.9 | 1.7 | 0.00 | 0.00 | 0.00 | 90 | 1013.9 |
| 20260906104804 | 74 | 93 | 1.7 | 1.7 | 0.00 | 0.00 | 0.00 | 89 | 1013.5 |
| 20260906104305 | 74 | 93 | 0.9 | 1.7 | 0.00 | 0.00 | 0.00 | 90 | 1013.9 |
| 20260906103804 | 75 | 93 | 0.9 | 1.7 | 0.00 | 0.00 | 0.00 | 89 | 1013.5 |
| 20260906103305 | 75 | 93 | 1.7 | 1.7 | 0.00 | 0.00 | 0.00 | 89 | 1013.5 |
| 20260906101805 | 75 | 93 | 0.9 | 1.7 | 0.00 | 0.00 | 0.00 | 90 | 1013.5 |
| 20260906101304 | 75 | 93 | 0.9 | 1.7 | 0.00 | 0.00 | 0.00 | 90 | 1013.2 |
| 20260906100805 | 75 | 93 | 0.9 | 0.9 | 0.00 | 0.00 | 0.00 | 89 | 1013.5 |
| 20260906100304 | 76 | 93 | 1.7 | 4.3 | 0.00 | 0.00 | 0.00 | 89 | 1013.2 |
| 20260906095804 | 76 | 93 | 0.9 | 4.3 | 0.00 | 0.00 | 0.00 | 89 | 1013.5 |
| 20260906095306 | 76 | 93 | 0.9 | 1.7 | 0.00 | 0.00 | 0.00 | 89 | 1013.2 |
| 20260906094805 | 76 | 93 | 1.7 | 1.7 | 0.00 | 0.00 | 0.00 | 89 | 1013.2 |
| 20260906094304 | 76 | 93 | 0.9 | 2.6 | 0.00 | 0.00 | 0.00 | 89 | 1012.9 |
| 20260906093805 | 76 | 93 | 1.7 | 2.6 | 0.00 | 0.00 | 0.00 | 89 | 1012.9 |
| 20260906093305 | 76 | 93 | 1.7 | 1.7 | 0.00 | 0.00 | 0.00 | 89 | 1013.2 |
| 20260906092306 | 76 | 93 | 1.7 | 2.6 | 0.00 | 0.00 | 0.00 | 89 | 1012.9 |
| 20260906091804 | 77 | 93 | 1.7 | 4.3 | 0.00 | 0.00 | 0.00 | 88 | 1013.2 |
| 20260906091305 | 77 | 93 | 1.7 | 1.7 | 0.00 | 0.00 | 0.00 | 88 | 1013.0 |
| 20260906090805 | 77 | 93 | 1.7 | 2.6 | 0.00 | 0.00 | 0.00 | 88 | 1012.9 |
| 20260906090304 | 77 | 93 | 1.7 | 4.3 | 0.00 | 0.00 | 0.00 | 88 | 1012.9 |
| 20260906085805 | 77 | 93 | 1.7 | 1.7 | 0.00 | 0.00 | 0.00 | 88 | 1012.9 |
| 20260906085306 | 78 | 93 | 1.7 | 2.6 | 0.00 | 0.00 | 0.00 | 88 | 1013.2 |
| 20260906084805 | 78 | 93 | 1.7 | 5.2 | 0.00 | 0.00 | 0.00 | 87 | 1012.5 |
| 20260906083804 | 78 | 93 | 2.6 | 5.2 | 0.00 | 0.00 | 0.00 | 86 | 1012.9 |
| 20260906083304 | 78 | 66 | 2.6 | 5.2 | 0.00 | 0.00 | 0.00 | 87 | 1012.5 |
| 20260906082805 | 78 | 42 | 1.7 | 2.6 | 0.00 | 0.00 | 0.00 | 87 | 1012.8 |
| 20260906081805 | 79 | 58 | 3.5 | 5.2 | 0.00 | 0.00 | 0.00 | 88 | 1012.2 |
| 20260906081304 | 79 | 155 | 1.7 | 4.3 | 0.00 | 0.00 | 0.00 | 88 | 1012.5 |
| 20260906080804 | 79 | 85 | 1.7 | 4.3 | 0.00 | 0.00 | 0.00 | 88 | 1012.5 |
| 20260906075804 | 79 | 108 | 1.7 | 2.6 | 0.00 | 0.00 | 0.00 | 87 | 1012.5 |
| 20260906075306 | 80 | 120 | 1.7 | 2.6 | 0.00 | 0.00 | 0.00 | 87 | 1012.5 |
| 20260906074805 | 80 | 132 | 3.5 | 4.3 | 0.00 | 0.00 | 0.00 | 87 | 1012.5 |
| 20260906073804 | 80 | 92 | 1.7 | 5.2 | 0.00 | 0.00 | 0.00 | 87 | 1012.9 |
| 20260906073304 | 80 | 89 | 1.7 | 2.6 | 0.00 | 0.00 | 0.00 | 86 | 1012.5 |
| 20260906072804 | 80 | 110 | 2.6 | 4.3 | 0.00 | 0.00 | 0.00 | 86 | 1012.9 |
| 20260906072306 | 80 | 62 | 1.7 | 4.3 | 0.00 | 0.00 | 0.00 | 87 | 1012.9 |
| 20260906071805 | 80 | 115 | 3.5 | 5.2 | 0.00 | 0.00 | 0.00 | 87 | 1012.9 |
| 20260906071304 | 81 | 125 | 2.6 | 5.2 | 0.00 | 0.00 | 0.00 | 87 | 1012.8 |
| 20260906070805 | 81 | 65 | 2.6 | 2.6 | 0.00 | 0.00 | 0.00 | 86 | 1012.5 |
| 20260906070304 | 81 | 113 | 2.6 | 4.3 | 0.00 | 0.00 | 0.00 | 86 | 1012.9 |
| 20260906065805 | 81 | 102 | 1.7 | 2.6 | 0.00 | 0.00 | 0.00 | 86 | 1012.5 |
| 20260906064804 | 81 | 119 | 1.7 | 2.6 | 0.00 | 0.00 | 0.00 | 85 | 1012.5 |
| 20260906064305 | 81 | 88 | 1.7 | 1.7 | 0.00 | 0.00 | 0.00 | 84 | 1012.7 |
| 20260906063804 | 82 | 71 | 1.7 | 1.7 | 0.00 | 0.00 | 0.00 | 84 | 1012.9 |
| 20260906062804 | 82 | 66 | 1.7 | 1.7 | 0.00 | 0.00 | 0.00 | 83 | 1012.5 |
| 20260906061805 | 82 | 72 | 0.9 | 2.6 | 0.00 | 0.00 | 0.00 | 82 | 1012.9 |
| 20260906061304 | 82 | 54 | 1.7 | 1.7 | 0.00 | 0.00 | 0.00 | 81 | 1012.5 |
| 20260906060804 | 82 | 43 | 1.7 | 1.7 | 0.00 | 0.00 | 0.00 | 81 | 1012.5 |
| 20260906060304 | 82 | 28 | 1.7 | 1.7 | 0.00 | 0.00 | 0.00 | 81 | 1012.9 |
| 20260906055804 | 82 | 28 | 0.0 | 0.9 | 0.00 | 0.00 | 0.00 | 81 | 1012.8 |
| 20260906055306 | 83 | 28 | 0.0 | 0.9 | 0.00 | 0.00 | 0.00 | 80 | 1012.5 |
| 20260906054804 | 83 | 28 | 0.9 | 0.9 | 0.00 | 0.00 | 0.00 | 80 | 1012.9 |
| 20260906054304 | 83 | 28 | 0.9 | 1.7 | 0.00 | 0.00 | 0.00 | 79 | 1012.5 |
| 20260906053804 | 83 | 28 | 0.9 | 0.9 | 0.00 | 0.00 | 0.00 | 79 | 1012.9 |
| 20260906052804 | 83 | 28 | 0.9 | 0.9 | 0.00 | 0.00 | 0.00 | 79 | 1012.5 |
| 20260906052306 | 83 | 28 | 0.0 | 0.0 | 0.00 | 0.00 | 0.00 | 78 | 1012.5 |
| 20260906050925 | 83 | 28 | 0.0 | 0.0 | 0.00 | 0.00 | 0.00 | 78 | 1012.5 |
| 20260906050304 | 83 | 28 | 0.0 | 0.9 | 0.00 | 0.00 | 0.00 | 77 | 1012.6 |
| 20260906045805 | 83 | 28 | 0.0 | 0.0 | 0.00 | 0.00 | 0.00 | 78 | 1012.8 |
| 20260906045306 | 83 | 28 | 0.0 | 0.0 | 0.00 | 0.00 | 0.00 | 78 | 1012.5 |
| 20260906044804 | 84 | 28 | 0.0 | 0.9 | 0.00 | 0.00 | 0.00 | 75 | 1012.5 |
| 20260906044304 | 85 | 28 | 0.9 | 0.9 | 0.00 | 0.00 | 0.00 | 75 | 1012.5 |
| 20260906043804 | 84 | 28 | 0.9 | 1.7 | 0.00 | 0.00 | 0.00 | 75 | 1012.2 |
| 20260906043304 | 84 | 28 | 0.9 | 0.9 | 0.00 | 0.00 | 0.00 | 75 | 1012.2 |
| 20260906042805 | 84 | 28 | 0.9 | 0.9 | 0.00 | 0.00 | 0.00 | 75 | 1012.2 |
| 20260906042306 | 84 | 28 | 0.9 | 1.7 | 0.00 | 0.00 | 0.00 | 74 | 1012.2 |
| 20260906041804 | 84 | 28 | 0.9 | 0.9 | 0.00 | 0.00 | 0.00 | 74 | 1012.2 |
| 20260906041304 | 83 | 28 | 0.0 | 0.0 | 0.00 | 0.00 | 0.00 | 74 | 1012.2 |
| 20260906040304 | 84 | 28 | 0.0 | 0.0 | 0.00 | 0.00 | 0.00 | 73 | 1012.2 |
| 20260906034804 | 84 | 28 | 0.0 | 0.0 | 0.00 | 0.00 | 0.00 | 70 | 1012.2 |
| 20260906034304 | 84 | 28 | 0.0 | 0.0 | 0.00 | 0.00 | 0.00 | 70 | 1012.2 |
| 20260906033804 | 84 | 28 | 0.0 | 0.0 | 0.00 | 0.00 | 0.00 | 70 | 1011.9 |
| 20260906033304 | 84 | 28 | 0.0 | 0.0 | 0.00 | 0.00 | 0.00 | 70 | 1012.2 |
| 20260906032804 | 84 | 28 | 0.0 | 0.0 | 0.00 | 0.00 | 0.00 | 69 | 1011.9 |
| 20260906032306 | 85 | 28 | 0.0 | 0.0 | 0.00 | 0.00 | 0.00 | 69 | 1011.9 |
| 20260906031804 | 85 | 28 | 0.0 | 0.0 | 0.00 | 0.00 | 0.00 | 68 | 1011.9 |
| 20260906030304 | 86 | 28 | 0.9 | 0.9 | 0.00 | 0.00 | 0.00 | 64 | 1011.5 |
| 20260906025804 | 87 | 28 | 0.9 | 1.7 | 0.00 | 0.00 | 0.00 | 63 | 1011.5 |
| 20260906025306 | 87 | 28 | 0.9 | 1.7 | 0.00 | 0.00 | 0.00 | 63 | 1011.9 |
| 20260906024804 | 87 | 26 | 0.0 | 0.0 | 0.00 | 0.00 | 0.00 | 62 | 1011.5 |
| 20260906024304 | 87 | 26 | 0.0 | 0.9 | 0.00 | 0.00 | 0.00 | 62 | 1011.5 |
| 20260906023803 | 87 | 26 | 0.9 | 1.7 | 0.00 | 0.00 | 0.00 | 61 | 1011.4 |
| 20260906023304 | 87 | 26 | 0.0 | 1.7 | 0.00 | 0.00 | 0.00 | 61 | 1011.2 |
| 20260906022805 | 87 | 25 | 0.9 | 1.7 | 0.00 | 0.00 | 0.00 | 62 | 1011.2 |
| 20260906022307 | 87 | 29 | 0.9 | 1.7 | 0.00 | 0.00 | 0.00 | 62 | 1011.2 |
| 20260906021804 | 87 | 30 | 0.0 | 0.0 | 0.00 | 0.00 | 0.00 | 63 | 1011.2 |
| 20260906021304 | 87 | 30 | 0.0 | 0.0 | 0.00 | 0.00 | 0.00 | 64 | 1010.8 |
| 20260906020804 | 87 | 30 | 0.0 | 0.0 | 0.00 | 0.00 | 0.00 | 63 | 1011.2 |
| 20260906020304 | 87 | 30 | 0.0 | 0.0 | 0.00 | 0.00 | 0.00 | 63 | 1010.8 |
| 20260906015803 | 87 | 30 | 0.0 | 0.0 | 0.00 | 0.00 | 0.00 | 64 | 1010.8 |
| 20260906015306 | 87 | 30 | 0.0 | 0.0 | 0.00 | 0.00 | 0.00 | 63 | 1010.8 |
| 20260906014803 | 87 | 30 | 0.0 | 0.9 | 0.00 | 0.00 | 0.00 | 64 | 1010.5 |
| 20260906014304 | 88 | 30 | 0.9 | 0.9 | 0.00 | 0.00 | 0.00 | 63 | 1010.5 |
| 20260906013804 | 88 | 30 | 0.9 | 0.9 | 0.00 | 0.00 | 0.00 | 64 | 1010.5 |
| 20260906013304 | 88 | 30 | 0.9 | 0.9 | 0.00 | 0.00 | 0.00 | 64 | 1010.5 |
| 20260906012803 | 88 | 30 | 0.9 | 0.9 | 0.00 | 0.00 | 0.00 | 64 | 1010.5 |
| 20260906012306 | 88 | 30 | 0.9 | 0.9 | 0.00 | 0.00 | 0.00 | 64 | 1010.5 |
| 20260906011803 | 88 | 34 | 0.0 | 0.9 | 0.00 | 0.00 | 0.00 | 64 | 1010.5 |
| 20260906011304 | 88 | 34 | 0.0 | 1.7 | 0.00 | 0.00 | 0.00 | 64 | 1010.5 |
| 20260906010804 | 89 | 33 | 0.0 | 0.0 | 0.00 | 0.00 | 0.00 | 64 | 1010.5 |
| 20260906010304 | 89 | 35 | 0.0 | 0.9 | 0.00 | 0.00 | 0.00 | 63 | 1010.2 |
| 20260906005804 | 89 | 35 | 0.9 | 0.9 | 0.00 | 0.00 | 0.00 | 62 | 1010.5 |
| 20260906005306 | 89 | 35 | 0.9 | 0.9 | 0.00 | 0.00 | 0.00 | 63 | 1010.2 |
| 20260906004804 | 89 | 35 | 0.0 | 0.9 | 0.00 | 0.00 | 0.00 | 62 | 1010.0 |
| 20260906004304 | 90 | 35 | 0.9 | 0.9 | 0.00 | 0.00 | 0.00 | 62 | 1009.9 |
| 20260906003804 | 90 | 35 | 0.0 | 0.9 | 0.00 | 0.00 | 0.00 | 62 | 1010.1 |
| 20260906003304 | 90 | 52 | 0.9 | 1.7 | 0.00 | 0.00 | 0.00 | 62 | 1009.8 |
| 20260906002804 | 90 | 48 | 1.7 | 1.7 | 0.00 | 0.00 | 0.00 | 61 | 1009.8 |
| 20260906002306 | 91 | 48 | 1.7 | 1.7 | 0.00 | 0.00 | 0.00 | 60 | 1010.2 |
| 20260906001804 | 91 | 40 | 1.7 | 2.6 | 0.00 | 0.00 | 0.00 | 59 | 1010.2 |
| 20260906001304 | 91 | 6 | 1.7 | 1.7 | 0.00 | 0.00 | 0.00 | 59 | 1010.2 |
| 20260906000804 | 91 | 42 | 1.7 | 2.6 | 0.00 | 0.00 | 0.00 | 58 | 1010.2 |
| 20260906000304 | 92 | 61 | 0.9 | 2.6 | 0.00 | 0.00 | 0.00 | 57 | 1010.2 |
| 20260905235806 | 92 | 0 | 2.6 | 4.3 | 0.00 | 0.00 | 0.00 | 57 | 1010.2 |
| 20260905235307 | 92 | 21 | 1.7 | 1.7 | 0.00 | 0.00 | 0.00 | 56 | 1010.5 |
| 20260905234806 | 92 | 21 | 0.9 | 0.9 | 0.00 | 0.00 | 0.00 | 57 | 1009.8 |
| 20260905234306 | 92 | 18 | 0.9 | 0.9 | 0.00 | 0.00 | 0.00 | 56 | 1010.2 |
| 20260905233806 | 92 | 357 | 0.9 | 1.7 | 0.00 | 0.00 | 0.00 | 55 | 1010.2 |
| 20260905233306 | 92 | 19 | 0.9 | 4.3 | 0.00 | 0.00 | 0.00 | 55 | 1010.5 |
| 20260905232806 | 93 | 2 | 0.9 | 1.7 | 0.00 | 0.00 | 0.00 | 55 | 1010.5 |
| 20260905232306 | 93 | 0 | 1.7 | 1.7 | 0.00 | 0.00 | 0.00 | 54 | 1010.2 |
| 20260905231806 | 93 | 24 | 1.7 | 1.7 | 0.00 | 0.00 | 0.00 | 53 | 1010.2 |
| 20260905231306 | 94 | 13 | 1.7 | 1.7 | 0.00 | 0.00 | 0.00 | 52 | 1010.2 |
| 20260905230806 | 94 | 8 | 1.7 | 1.7 | 0.00 | 0.00 | 0.00 | 52 | 1010.2 |
| 20260905230305 | 94 | 3 | 1.7 | 2.6 | 0.00 | 0.00 | 0.00 | 51 | 1010.5 |
| 20260905225806 | 95 | 60 | 1.7 | 2.6 | 0.00 | 0.00 | 0.00 | 49 | 1010.2 |
| 20260905225306 | 95 | 97 | 1.7 | 2.6 | 0.00 | 0.00 | 0.00 | 48 | 1010.2 |
| 20260905224805 | 95 | 1 | 1.7 | 2.6 | 0.00 | 0.00 | 0.00 | 51 | 1010.5 |
| 20260905224306 | 96 | 354 | 1.7 | 1.7 | 0.00 | 0.00 | 0.00 | 49 | 1010.2 |
| 20260905223806 | 97 | 54 | 1.7 | 2.6 | 0.00 | 0.00 | 0.00 | 48 | 1009.8 |
| 20260905223306 | 97 | 54 | 1.7 | 1.7 | 0.00 | 0.00 | 0.00 | 48 | 1009.8 |
| 20260905222806 | 97 | 81 | 2.6 | 4.3 | 0.00 | 0.00 | 0.00 | 47 | 1010.2 |
| 20260905222306 | 97 | 8 | 1.7 | 4.3 | 0.00 | 0.00 | 0.00 | 47 | 1009.8 |
| 20260905221806 | 97 | 104 | 2.6 | 4.3 | 0.00 | 0.00 | 0.00 | 46 | 1009.9 |
| 20260905221306 | 98 | 83 | 2.6 | 2.6 | 0.00 | 0.00 | 0.00 | 46 | 1010.1 |
| 20260905220806 | 98 | 42 | 2.6 | 5.2 | 0.00 | 0.00 | 0.00 | 45 | 1009.8 |
| 20260905220306 | 98 | 357 | 1.7 | 4.3 | 0.00 | 0.00 | 0.00 | 45 | 1010.2 |
| 20260905215805 | 99 | 23 | 1.7 | 4.3 | 0.00 | 0.00 | 0.00 | 44 | 1010.2 |
| 20260905214806 | 100 | 91 | 2.6 | 4.3 | 0.00 | 0.00 | 0.00 | 44 | 1010.2 |
| 20260905213306 | 99 | 31 | 3.5 | 5.2 | 0.00 | 0.00 | 0.00 | 45 | 1010.2 |
| 20260905212806 | 99 | 95 | 1.7 | 4.3 | 0.00 | 0.00 | 0.00 | 44 | 1009.8 |
| 20260905212306 | 100 | 81 | 1.7 | 1.7 | 0.00 | 0.00 | 0.00 | 42 | 1009.8 |
| 20260905211306 | 99 | 89 | 1.7 | 4.3 | 0.00 | 0.00 | 0.00 | 45 | 1009.8 |
| 20260905210806 | 99 | 109 | 2.6 | 4.3 | 0.00 | 0.00 | 0.00 | 43 | 1009.8 |
| 20260905205806 | 100 | 54 | 2.6 | 2.6 | 0.00 | 0.00 | 0.00 | 42 | 1009.8 |
| 20260905205306 | 100 | 118 | 2.6 | 2.6 | 0.00 | 0.00 | 0.00 | 43 | 1010.5 |
| 20260905204306 | 100 | 60 | 1.7 | 4.3 | 0.00 | 0.00 | 0.00 | 44 | 1010.5 |
| 20260905203306 | 101 | 109 | 1.7 | 2.6 | 0.00 | 0.00 | 0.00 | 43 | 1010.3 |
| 20260905202806 | 100 | 73 | 2.6 | 4.3 | 0.00 | 0.00 | 0.00 | 43 | 1010.5 |
| 20260905202306 | 100 | 6 | 2.6 | 2.6 | 0.00 | 0.00 | 0.00 | 41 | 1010.5 |
| 20260905201807 | 102 | 83 | 1.7 | 2.6 | 0.00 | 0.00 | 0.00 | 40 | 1010.5 |
| 20260905201306 | 101 | 10 | 2.6 | 4.3 | 0.00 | 0.00 | 0.00 | 42 | 1010.5 |
| 20260905200806 | 101 | 39 | 2.6 | 4.3 | 0.00 | 0.00 | 0.00 | 43 | 1010.5 |
| 20260905200305 | 102 | 24 | 1.7 | 2.6 | 0.00 | 0.00 | 0.00 | 42 | 1010.5 |
| 20260905195805 | 101 | 90 | 1.7 | 2.6 | 0.00 | 0.00 | 0.00 | 43 | 1010.5 |
| 20260905194805 | 101 | 76 | 2.6 | 4.3 | 0.00 | 0.00 | 0.00 | 44 | 1010.5 |
| 20260905193805 | 102 | 96 | 1.7 | 4.3 | 0.00 | 0.00 | 0.00 | 41 | 1010.5 |
| 20260905193306 | 101 | 352 | 2.6 | 5.2 | 0.00 | 0.00 | 0.00 | 38 | 1010.5 |
| 20260905192806 | 103 | 318 | 2.6 | 5.2 | 0.00 | 0.00 | 0.00 | 38 | 1010.5 |
| 20260905192306 | 102 | 1 | 1.7 | 7.0 | 0.00 | 0.00 | 0.00 | 37 | 1010.5 |
| 20260905191806 | 102 | 356 | 2.6 | 5.2 | 0.00 | 0.00 | 0.00 | 38 | 1010.8 |
| 20260905191306 | 102 | 22 | 0.9 | 1.7 | 0.00 | 0.00 | 0.00 | 38 | 1010.5 |
| 20260905190805 | 101 | 5 | 1.7 | 4.3 | 0.00 | 0.00 | 0.00 | 41 | 1010.5 |
| 20260905190305 | 101 | 354 | 1.7 | 2.6 | 0.00 | 0.00 | 0.00 | 40 | 1010.8 |
| 20260905185806 | 100 | 53 | 1.7 | 1.7 | 0.00 | 0.00 | 0.00 | 41 | 1011.1 |
| 20260905185306 | 100 | 168 | 0.9 | 1.7 | 0.00 | 0.00 | 0.00 | 43 | 1010.8 |
| 20260905183805 | 101 | 23 | 2.6 | 4.3 | 0.00 | 0.00 | 0.00 | 40 | 1010.8 |
| 20260905182306 | 102 | 162 | 1.7 | 2.6 | 0.00 | 0.00 | 0.00 | 40 | 1010.9 |
| 20260905181305 | 102 | 210 | 1.7 | 1.7 | 0.00 | 0.00 | 0.00 | 43 | 1011.2 |
| 20260905180305 | 102 | 114 | 1.7 | 2.6 | 0.00 | 0.00 | 0.00 | 40 | 1011.5 |
| 20260905175806 | 101 | 174 | 1.7 | 2.6 | 0.00 | 0.00 | 0.00 | 41 | 1011.5 |
| 20260905175306 | 100 | 293 | 1.7 | 1.7 | 0.00 | 0.00 | 0.00 | 43 | 1011.5 |
| 20260905174805 | 100 | 218 | 2.6 | 2.6 | 0.00 | 0.00 | 0.00 | 46 | 1011.9 |
| 20260905174305 | 99 | 339 | 1.7 | 1.7 | 0.00 | 0.00 | 0.00 | 46 | 1011.9 |
| 20260905173805 | 99 | 228 | 2.6 | 2.6 | 0.00 | 0.00 | 0.00 | 47 | 1011.9 |
| 20260905173306 | 98 | 263 | 1.7 | 2.6 | 0.00 | 0.00 | 0.00 | 47 | 1011.5 |
| 20260905172805 | 99 | 245 | 1.7 | 2.6 | 0.00 | 0.00 | 0.00 | 48 | 1011.9 |
| 20260905171805 | 100 | 358 | 1.7 | 2.6 | 0.00 | 0.00 | 0.00 | 48 | 1011.9 |
| 20260905171306 | 100 | 24 | 0.9 | 1.7 | 0.00 | 0.00 | 0.00 | 46 | 1011.9 |
| 20260905170805 | 101 | 12 | 1.7 | 1.7 | 0.00 | 0.00 | 0.00 | 47 | 1012.2 |
| 20260905170306 | 100 | 108 | 1.7 | 2.6 | 0.00 | 0.00 | 0.00 | 48 | 1012.2 |
| 20260905165306 | 99 | 234 | 2.6 | 2.6 | 0.00 | 0.00 | 0.00 | 49 | 1012.2 |
| 20260905164806 | 99 | 7 | 1.7 | 1.7 | 0.00 | 0.00 | 0.00 | 49 | 1012.2 |
| 20260905164305 | 98 | 7 | 0.9 | 2.6 | 0.00 | 0.00 | 0.00 | 48 | 1012.5 |
| 20260905163806 | 99 | 353 | 2.6 | 2.6 | 0.00 | 0.00 | 0.00 | 47 | 1012.6 |
| 20260905163305 | 99 | 350 | 1.7 | 2.6 | 0.00 | 0.00 | 0.00 | 47 | 1012.8 |
| 20260905162806 | 98 | 132 | 0.9 | 2.6 | 0.00 | 0.00 | 0.00 | 47 | 1012.5 |
| 20260905162306 | 98 | 335 | 1.7 | 1.7 | 0.00 | 0.00 | 0.00 | 50 | 1012.9 |
| 20260905161805 | 98 | 30 | 1.7 | 1.7 | 0.00 | 0.00 | 0.00 | 49 | 1012.5 |
| 20260905161305 | 97 | 24 | 1.7 | 2.6 | 0.00 | 0.00 | 0.00 | 50 | 1012.9 |
| 20260905160805 | 96 | 102 | 1.7 | 1.7 | 0.00 | 0.00 | 0.00 | 50 | 1012.5 |
| 20260905160305 | 98 | 102 | 0.0 | 0.9 | 0.00 | 0.00 | 0.00 | 50 | 1012.5 |
| 20260905155805 | 97 | 102 | 1.7 | 1.7 | 0.00 | 0.00 | 0.00 | 50 | 1012.6 |
| 20260905155306 | 96 | 101 | 2.6 | 2.6 | 0.00 | 0.00 | 0.00 | 51 | 1012.9 |
| 20260905154805 | 96 | 116 | 0.9 | 1.7 | 0.00 | 0.00 | 0.00 | 52 | 1012.9 |
| 20260905154305 | 95 | 30 | 0.9 | 0.9 | 0.00 | 0.00 | 0.00 | 53 | 1012.9 |
| 20260905153305 | 95 | 60 | 0.9 | 1.7 | 0.00 | 0.00 | 0.00 | 52 | 1012.9 |
| 20260905152805 | 94 | 336 | 1.7 | 1.7 | 0.00 | 0.00 | 0.00 | 56 | 1012.9 |
| 20260905152306 | 93 | 276 | 1.7 | 1.7 | 0.00 | 0.00 | 0.00 | 56 | 1012.6 |
| 20260905151805 | 93 | 240 | 1.7 | 1.7 | 0.00 | 0.00 | 0.00 | 57 | 1012.8 |
| 20260905151305 | 93 | 318 | 0.9 | 1.7 | 0.00 | 0.00 | 0.00 | 58 | 1012.5 |
| 20260905150805 | 92 | 324 | 1.7 | 1.7 | 0.00 | 0.00 | 0.00 | 60 | 1012.9 |